Location: Christianberg
(48.9086°N, 14.0209°E)
Time: 22:35:59
(UTC+00:00)

Cosmos 2221 - Pass Details

Date: 20 June 2021
Orbit: 591 x 616 km, 82.5° (Epoch: 04 August)

Event Time Altitude Azimuth Distance (km) Brightness Sun altitude
Rises 00:19:29 0° 349° (N) 2,866 7.1 -15.8°
Reaches altitude 10° 00:21:43 10° 348° (NNW) 1,954 6.1 -15.7°
Maximum altitude 00:26:02 80° 263° (W) 612 2.4 -15.5°
Enters shadow 00:28:27 25° 178° (S) 1,205 3.5 -15.3°
